Flag for Germany Weather past 2 weeks in Güstrow, Mecklenburg-Western Pomerania, Germany

Now
59 °F

Partly sunny.


Feels Like: 58 °F
Forecast: 47 / 58 °F
Wind: 7 mph from Southwest

Location: Laage

Current Time: May 29, 2015 at 2:30:21 PM

Latest Report: May 29, 2015 at 1:57 PM


Visibility: N/A

Pressure: 29.83 "Hg

Humidity: 48%

Dew point: 39 °F

Location of GüstrowLocation

Historic Weather in Güstrow — Graph

°F

Güstrow temperature yesterday

Maximum temperature yesterday: 63 °F (at 12:20 PM)
Minimum temperature yesterday: 43 °F (at 2:20 AM)
Average temperature yesterday: 52 °F

Past Weeks' High & Low Weather Summary

 TemperatureHumidityPressure
High64 °F (May 22, 4:20 PM)100% (May 15, 1:20 AM)30.27 "Hg (May 15, 1:20 AM)
Low37 °F (May 21, 5:20 AM)44% (May 17, 1:20 PM)29.56 "Hg (May 19, 1:20 AM)
Average51 °F77%29.99 "Hg
* Reported May 14 1:20 PM — May 29 1:20 PM, Güstrow, Weather by CustomWeather, © 2015

Note: Actual official high and low records may vary slightly from our data, if they occured in-between our weather recording intervals... More about our weather records

Advertising

Güstrow weather history for previous 24 hours

 ConditionsComfort  
Time TempWeatherWind HumidityBarometerVisibility
1:20 PM
Fri, May 29
57 °FBroken clouds.8 mph51%29.86 "HgN/A
12:20 PM57 °FPartly sunny.10 mph51%29.86 "HgN/A
11:20 AM55 °FPartly sunny.9 mph55%29.89 "HgN/A
10:20 AM55 °FBroken clouds.9 mph59%29.89 "HgN/A
9:20 AM52 °FScattered clouds.7 mph72%29.89 "HgN/A
8:20 AM50 °FPassing clouds.7 mph82%29.89 "HgN/A
7:20 AM46 °FPassing clouds.7 mph87%29.89 "HgN/A
6:20 AM43 °FQuite cool.6 mph93%29.89 "HgN/A
5:20 AM41 °FFog.3 mph100%29.89 "HgN/A
4:20 AM43 °FFog.3 mph93%29.89 "HgN/A
3:20 AM43 °FQuite cool.3 mph93%29.89 "HgN/A
2:20 AM45 °FQuite cool.8 mph93%29.89 "HgN/A
1:20 AM46 °FCool.8 mph87%29.89 "HgN/A
12:20 AM48 °FCool.8 mph87%29.89 "HgN/A
11:20 PM
Thu, May 28
48 °FCool.8 mph94%29.86 "HgN/A
10:20 PM48 °FPassing clouds.9 mph100%29.86 "HgN/A
9:20 PM50 °FPassing clouds.6 mph94%29.86 "HgN/A
8:20 PM52 °FBroken clouds.7 mph88%29.83 "HgN/A
7:20 PM52 °FLight rain. Partly sunny.5 mph88%29.83 "HgN/A
6:20 PM50 °FRain. More clouds than sun.6 mph94%29.86 "Hg5 mi
5:20 PM52 °FLight rain. Broken clouds.16 mph88%29.83 "HgN/A
4:20 PM57 °FSprinkles. Broken clouds.10 mph82%29.80 "Hg5 mi
3:20 PM55 °FSprinkles. Broken clouds.12 mph82%29.83 "HgN/A
2:20 PM63 °FPartly sunny.15 mph52%29.80 "HgN/A
Weather by CustomWeather, © 2015

See weather overviewHow to use our weather pages